Weather History for Evergreen, AL

Change the Weather History Date:

Sunday, December 9, 2012

  Actual Average (KPRN) Record (KPRN)
Temperature  
Mean Temperature 64 °F -  
Max Temperature 75 °F 63 °F 81 °F (1986)
Min Temperature 52 °F 42 °F 21 °F (1968)
Degree Days  
Heating Degree Days 2    
Growing Degree Days 14 (Base 50)    
Moisture  
Dew Point 59 °F    
Average Humidity 86    
Maximum Humidity 100    
Minimum Humidity 60    
Precipitation  
Precipitation 0.02 in - - ()
Sea Level Pressure  
Sea Level Pressure 30.03 in    
Wind  
Wind Speed 3 mph (South)    
Max Wind Speed 12 mph    
Max Gust Speed -    
Visibility 7 miles    
Events Fog    
Averages and records for this station are not official NWS values.
T = Trace of Precipitation, MM = Missing Value Source: NWS Daily Summary

Daily Weather History Graph

Daily Weather History Graph

Search for Another Location

Airport:

Trip Planner

Search our weather history database for the weather conditions in past years. The results will help you decide how hot, cold, wet, or windy it might be!

Date:

Astronomy

Dec. 09, 2012 Rise Set
Actual Time 6:36 AM CST 4:45 PM CST
Civil Twilight 6:09 AM CST 5:12 PM CST
Nautical Twilight 5:39 AM CST 5:42 PM CST
Astronomical Twilight 5:09 AM CST 6:11 PM CST
Moon 2:19 AM CST (12/9) 1:42 PM CST (12/9)
Length of Visible Light 11h 02m
Length of Day
10h 09m
Waning Crescent, 18% of the Moon is Illuminated
Dec 9
Waning Crescent
Dec 13
New
Dec 19
First Quarter
Dec 28
Full
Jan 4
Last Quarter

Hourly Weather History & Observations

Time (CST) Temp. Dew Point Humidity Pressure Visibility Wind Dir Wind Speed Gust Speed Precip Events Conditions
12:20 AM 57.2 °F 53.6 °F 88% 30.03 in 9.0 mi Calm Calm - N/A   Mostly Cloudy
12:32 AM 55.4 °F 53.6 °F 94% 30.03 in 8.0 mi Calm Calm - N/A   Mostly Cloudy
12:41 AM 55.4 °F 53.6 °F 94% 30.03 in 1.5 mi Calm Calm - N/A   Overcast
12:49 AM 55.4 °F 53.6 °F 94% 30.03 in 0.2 mi Calm Calm - N/A Fog Fog
12:53 AM 55.0 °F 53.1 °F 93% 30.02 in 0.2 mi Calm Calm - N/A Fog Fog
1:53 AM 53.1 °F 51.1 °F 93% 30.02 in 0.2 mi Calm Calm - 0.01 in Fog Fog
2:53 AM 52.0 °F 50.0 °F 93% 30.01 in 0.2 mi Calm Calm - N/A Fog Fog
3:53 AM 53.1 °F 51.1 °F 93% 30.02 in 0.2 mi Calm Calm - N/A Fog Fog
4:53 AM 52.0 °F 50.0 °F 93% 30.04 in 0.2 mi Calm Calm - N/A Fog Fog
5:53 AM 52.0 °F 50.0 °F 93% 30.06 in 0.2 mi Calm Calm - N/A Fog Fog
6:53 AM 52.0 °F 50.0 °F 93% 30.08 in 0.2 mi Calm Calm - N/A Fog Fog
7:53 AM 55.0 °F 54.0 °F 96% 30.09 in 0.2 mi Calm Calm - N/A Fog Fog
8:53 AM 59.0 °F 57.0 °F 93% 30.10 in 0.2 mi Calm Calm - N/A Fog Fog
9:53 AM 62.1 °F 61.0 °F 96% 30.10 in 0.2 mi Calm Calm - N/A Fog Fog
10:19 AM 62.6 °F 60.8 °F 94% 30.10 in 1.8 mi SE 3.5 mph - N/A   Overcast
10:24 AM 62.6 °F 62.6 °F 100% 30.10 in 3.0 mi SE 3.5 mph - N/A   Overcast
10:53 AM 64.9 °F 62.1 °F 90% 30.09 in 10.0 mi SSE 4.6 mph - N/A   Overcast
11:07 AM 66.2 °F 62.6 °F 88% 30.08 in 10.0 mi South 8.1 mph - N/A   Overcast
11:19 AM 68.0 °F 62.6 °F 83% 30.07 in 10.0 mi Variable 4.6 mph - N/A   Overcast
11:31 AM 69.8 °F 62.6 °F 78% 30.07 in 10.0 mi South 5.8 mph - N/A   Mostly Cloudy
11:37 AM 69.8 °F 62.6 °F 78% 30.06 in 10.0 mi SSE 5.8 mph - N/A   Mostly Cloudy
11:53 AM 72.0 °F 62.1 °F 71% 30.04 in 10.0 mi SSW 6.9 mph - 0.01 in   Scattered Clouds
12:53 PM 73.0 °F 61.0 °F 66% 30.02 in 10.0 mi SSW 4.6 mph - N/A   Mostly Cloudy
1:53 PM 75.0 °F 60.1 °F 60% 30.00 in 10.0 mi South 8.1 mph - N/A   Partly Cloudy
2:53 PM 75.0 °F 61.0 °F 62% 29.99 in 10.0 mi SSW 5.8 mph - N/A   Scattered Clouds
3:53 PM 75.0 °F 62.1 °F 64% 29.99 in 10.0 mi South 8.1 mph - N/A   Mostly Cloudy
4:53 PM 71.1 °F 63.0 °F 75% 29.99 in 10.0 mi South 9.2 mph - N/A   Mostly Cloudy
5:53 PM 71.1 °F 63.0 °F 75% 29.99 in 10.0 mi South 11.5 mph - N/A   Overcast
6:53 PM 68.0 °F 62.1 °F 81% 29.99 in 10.0 mi South 8.1 mph - N/A   Partly Cloudy
7:25 PM 66.2 °F 62.6 °F 88% 30.00 in 10.0 mi South 5.8 mph - N/A   Mostly Cloudy
7:53 PM 66.9 °F 62.1 °F 84% 29.99 in 10.0 mi South 6.9 mph - N/A   Mostly Cloudy
8:26 PM 66.2 °F 62.6 °F 88% 30.01 in 10.0 mi South 6.9 mph - N/A   Scattered Clouds
8:34 PM 66.2 °F 62.6 °F 88% 30.00 in 10.0 mi South 6.9 mph - N/A   Mostly Cloudy
8:46 PM 66.2 °F 62.6 °F 88% 30.00 in 10.0 mi South 8.1 mph - N/A   Mostly Cloudy
8:53 PM 66.9 °F 63.0 °F 87% 29.99 in 10.0 mi South 6.9 mph - N/A   Overcast
9:34 PM 66.2 °F 62.6 °F 88% 29.99 in 10.0 mi SSE 5.8 mph - N/A   Mostly Cloudy
9:38 PM 66.2 °F 62.6 °F 88% 29.99 in 10.0 mi South 5.8 mph - N/A   Mostly Cloudy
9:53 PM 66.9 °F 63.0 °F 87% 29.99 in 10.0 mi SSE 6.9 mph - N/A   Overcast
10:53 PM 66.9 °F 64.0 °F 90% 29.97 in 10.0 mi South 8.1 mph - N/A   Overcast
11:53 PM 66.9 °F 64.0 °F 90% 29.95 in 10.0 mi South 5.8 mph - N/A   Overcast